This is the latest recevied weather packets stored in our database for station/object EA1FBN. If no packets are shown the sender has not sent any weather packets the latest 10 day(s).
| Time | Temp. | Humidity | Pressure | Rain* | Wind** | Luminosity | Snow |
|---|---|---|---|---|---|---|---|
| 1777806019 | 14.44° C | 73% | 1014 hPa | 0.25 mm | - | - | - |
| 1777805719 | 13.89° C | 74% | 1013.9 hPa | 0.25 mm | - | - | - |
| 1777805419 | 13.89° C | 74% | 1014 hPa | 0 mm | - | - | - |
| 1777805119 | 13.89° C | 74% | 1014 hPa | 0 mm | - | - | - |
| 1777804819 | 13.89° C | 74% | 1014.2 hPa | 0 mm | - | - | - |
| 1777804520 | 13.33° C | 75% | 1014.1 hPa | 0 mm | - | - | - |
| 1777804219 | 13.33° C | 74% | 1014.1 hPa | 0 mm | - | - | - |
| 1777803920 | 13.89° C | 74% | 1014.2 hPa | 0 mm | - | - | - |
| 1777803619 | 13.89° C | 74% | 1014.2 hPa | 0 mm | - | - | - |
| 1777803319 | 13.89° C | 74% | 1014.2 hPa | 0 mm | - | - | - |
| 1777803020 | 13.89° C | 74% | 1014.3 hPa | 0 mm | - | - | - |
| 1777802720 | 13.89° C | 74% | 1014.3 hPa | 0 mm | - | - | - |
| 1777802420 | 14.44° C | 74% | 1014.3 hPa | 0 mm | - | - | - |
| 1777802120 | 14.44° C | 74% | 1014.3 hPa | 0 mm | - | - | - |
| 1777801820 | 14.44° C | 75% | 1014.2 hPa | 0 mm | - | - | - |
| 1777801520 | 13.89° C | 75% | 1014.3 hPa | 0 mm | - | - | - |
| 1777801220 | 13.33° C | 75% | 1014.3 hPa | 0 mm | - | - | - |
| 1777800919 | 13.33° C | 72% | 1014.3 hPa | 0 mm | - | - | - |
| 1777800619 | 12.78° C | 72% | 1014.4 hPa | 0 mm | - | - | - |
| 1777800320 | 12.78° C | 70% | 1014.5 hPa | 0 mm | - | - | - |
| 1777800020 | 12.78° C | 66% | 1014.5 hPa | 0 mm | - | - | - |
| 1777799720 | 12.78° C | 64% | 1014.6 hPa | 0 mm | - | - | - |
| 1777799420 | 12.22° C | 62% | 1014.5 hPa | 0 mm | - | - | - |
| 1777799120 | 12.22° C | 60% | 1014.5 hPa | 0 mm | - | - | - |
| 1777798820 | 12.22° C | 59% | 1014.6 hPa | 0 mm | - | - | - |
* Rain latest hour (hover to see other rain measurements)
** Current wind speed in m/s (hover to see current wind gust speed)